| time (UTC) | temp F | wind direction | speed knots | gust knots | rain 1hr in | rain 24hr in | rain mn in | humidity % | barometer mb |
| 20260506170915 | 54 | 6 | 3.5 | 12.2 | 0.00 | 0.06 | 0.06 | 33 | 1017.9 |
| 20260506170003 | 55 | 3 | 2.6 | 11.3 | 0.00 | 0.06 | 0.06 | 32 | 1017.9 |
| 20260506165415 | 55 | 345 | 2.6 | 11.3 | 0.00 | 0.06 | 0.06 | 33 | 1017.9 |
| 20260506164515 | 54 | 13 | 1.7 | 9.6 | 0.00 | 0.06 | 0.06 | 35 | 1017.9 |
| 20260506163615 | 53 | 273 | 0.9 | 6.1 | 0.00 | 0.06 | 0.06 | 47 | 1017.9 |
| 20260506162715 | 53 | 350 | 0.0 | 3.5 | 0.00 | 0.06 | 0.06 | 47 | 1017.9 |
| 20260506161815 | 52 | 307 | 0.0 | 3.5 | 0.00 | 0.06 | 0.06 | 47 | 1017.9 |
| 20260506160924 | 52 | 360 | 0.0 | 1.7 | 0.00 | 0.06 | 0.06 | 50 | 1017.9 |
| 20260506160015 | 50 | 0 | 0.0 | 0.0 | 0.00 | 0.06 | 0.06 | 55 | 1017.9 |
| 20260506155415 | 49 | 360 | 0.0 | 2.6 | 0.00 | 0.06 | 0.06 | 59 | 1017.9 |
| 20260506154524 | 48 | 0 | 0.0 | 0.9 | 0.00 | 0.06 | 0.06 | 60 | 1017.9 |
| 20260506153615 | 47 | 354 | 0.0 | 3.5 | 0.00 | 0.06 | 0.06 | 63 | 1017.9 |
| 20260506152703 | 45 | 355 | 0.0 | 5.2 | 0.00 | 0.06 | 0.06 | 59 | 1017.9 |
| 20260506151815 | 45 | 355 | 0.0 | 3.5 | 0.00 | 0.06 | 0.06 | 63 | 1017.9 |
| 20260506150915 | 45 | 355 | 0.9 | 7.0 | 0.00 | 0.06 | 0.06 | 64 | 1017.9 |
| 20260506150015 | 45 | 3 | 0.9 | 7.0 | 0.00 | 0.06 | 0.06 | 68 | 1017.9 |
| 20260506145403 | 44 | 355 | 0.0 | 3.5 | 0.00 | 0.06 | 0.06 | 70 | 1017.9 |
| 20260506144515 | 44 | 356 | 0.0 | 2.6 | 0.00 | 0.06 | 0.06 | 73 | 1017.9 |
| 20260506143615 | 44 | 0 | 0.0 | 0.0 | 0.00 | 0.06 | 0.06 | 76 | 1017.9 |
| 20260506142724 | 43 | 0 | 0.0 | 0.0 | 0.00 | 0.06 | 0.06 | 75 | 1017.9 |
| 20260506141803 | 43 | 0 | 0.0 | 0.0 | 0.00 | 0.06 | 0.06 | 76 | 1017.9 |
| 20260506140915 | 43 | 0 | 0.0 | 0.0 | 0.00 | 0.06 | 0.06 | 76 | 1017.9 |
| 20260506140015 | 43 | 0 | 0.0 | 0.0 | 0.00 | 0.06 | 0.06 | 76 | 1017.9 |
| 20260506135415 | 43 | 0 | 0.0 | 0.0 | 0.01 | 0.06 | 0.06 | 78 | 1017.9 |
| 20260506134503 | 42 | 0 | 0.0 | 0.0 | 0.01 | 0.06 | 0.06 | 80 | 1017.9 |
| 20260506133615 | 42 | 0 | 0.0 | 0.0 | 0.01 | 0.06 | 0.06 | 78 | 1017.9 |
| 20260506132736 | 42 | 0 | 0.0 | 0.0 | 0.02 | 0.06 | 0.06 | 78 | 1017.9 |
| 20260506131815 | 42 | 224 | 0.0 | 3.5 | 0.04 | 0.06 | 0.06 | 77 | 1017.9 |
| 20260506130936 | 42 | 224 | 0.0 | 3.5 | 0.05 | 0.06 | 0.06 | 78 | 1017.9 |
| 20260506130015 | 42 | 223 | 0.0 | 1.7 | 0.05 | 0.06 | 0.06 | 78 | 1017.9 |
| 20260506125403 | 42 | 223 | 0.9 | 7.0 | 0.05 | 0.05 | 0.05 | 77 | 1017.9 |
| 20260506124503 | 42 | 231 | 0.9 | 7.0 | 0.05 | 0.05 | 0.05 | 78 | 1017.9 |
| 20260506123636 | 42 | 261 | 3.5 | 10.4 | 0.05 | 0.05 | 0.05 | 76 | 1017.9 |
| 20260506122715 | 43 | 285 | 2.6 | 13.0 | 0.04 | 0.04 | 0.04 | 75 | 1017.9 |
| 20260506121815 | 44 | 285 | 2.6 | 11.3 | 0.02 | 0.02 | 0.03 | 74 | 1017.9 |
| 20260506120936 | 44 | 284 | 5.2 | 14.8 | 0.01 | 0.01 | 0.01 | 72 | 1017.9 |
| 20260506120015 | 46 | 288 | 7.0 | 17.4 | 0.01 | 0.01 | 0.01 | 68 | 1017.9 |
| 20260506115436 | 48 | 299 | 3.5 | 19.1 | 0.00 | 0.00 | 0.00 | 66 | 1017.9 |
| 20260506114536 | 49 | 292 | 4.3 | 19.1 | 0.00 | 0.00 | 0.00 | 58 | 1017.9 |
| 20260506113615 | 50 | 274 | 1.7 | 8.7 | 0.00 | 0.00 | 0.00 | 55 | 1017.9 |
| 20260506112736 | 50 | 283 | 0.9 | 7.8 | 0.00 | 0.00 | 0.00 | 53 | 1017.9 |
| 20260506111803 | 49 | 295 | 0.9 | 7.8 | 0.00 | 0.00 | 0.00 | 54 | 1017.9 |
| 20260506110915 | 49 | 317 | 0.9 | 8.7 | 0.00 | 0.00 | 0.00 | 56 | 1017.9 |
| 20260506110015 | 48 | 232 | 0.0 | 1.7 | 0.00 | 0.00 | 0.00 | 57 | 1017.9 |
| 20260506105415 | 48 | 0 | 0.0 | 0.0 | 0.00 | 0.00 | 0.00 | 58 | 1017.9 |
| 20260506104503 | 48 | 0 | 0.0 | 0.0 | 0.00 | 0.00 | 0.00 | 58 | 1017.9 |
| 20260506103636 | 48 | 0 | 0.0 | 0.0 | 0.00 | 0.00 | 0.00 | 59 | 1017.9 |
| 20260506102715 | 48 | 0 | 0.0 | 0.0 | 0.00 | 0.00 | 0.00 | 59 | 1017.9 |
| 20260506101803 | 49 | 0 | 0.0 | 0.0 | 0.00 | 0.00 | 0.00 | 59 | 1017.9 |
| 20260506100936 | 50 | 0 | 0.0 | 0.0 | 0.00 | 0.00 | 0.00 | 58 | 1017.9 |
| 20260506100015 | 51 | 0 | 0.0 | 0.0 | 0.00 | 0.00 | 0.00 | 55 | 1017.9 |
| 20260506095436 | 51 | 0 | 0.0 | 0.0 | 0.00 | 0.00 | 0.00 | 53 | 1017.9 |
| 20260506094515 | 51 | 232 | 0.0 | 4.3 | 0.00 | 0.00 | 0.00 | 54 | 1017.9 |
| 20260506093624 | 51 | 232 | 0.0 | 3.5 | 0.00 | 0.00 | 0.00 | 54 | 1017.9 |
| 20260506092715 | 50 | 0 | 0.0 | 0.0 | 0.00 | 0.00 | 0.00 | 54 | 1017.9 |
| 20260506091803 | 50 | 257 | 0.0 | 2.6 | 0.00 | 0.00 | 0.00 | 55 | 1017.9 |
| 20260506090915 | 49 | 236 | 0.0 | 3.5 | 0.00 | 0.00 | 0.00 | 58 | 1017.9 |
| 20260506090015 | 49 | 0 | 0.0 | 0.0 | 0.00 | 0.00 | 0.00 | 59 | 1017.9 |
| 20260506085415 | 49 | 0 | 0.0 | 0.0 | 0.00 | 0.00 | 0.00 | 59 | 1017.9 |
| 20260506084503 | 50 | 0 | 0.0 | 0.0 | 0.00 | 0.00 | 0.00 | 56 | 1017.9 |
| 20260506083603 | 51 | 0 | 0.0 | 0.0 | 0.00 | 0.00 | 0.00 | 54 | 1017.9 |
| 20260506082715 | 51 | 0 | 0.0 | 0.0 | 0.00 | 0.00 | 0.00 | 54 | 1017.9 |
| 20260506081824 | 52 | 0 | 0.0 | 0.0 | 0.00 | 0.00 | 0.00 | 53 | 1017.9 |
| 20260506080915 | 52 | 0 | 0.0 | 0.0 | 0.00 | 0.00 | 0.00 | 53 | 1017.9 |
| 20260506072715 | 53 | 296 | 0.9 | 6.1 | 0.00 | 0.00 | 0.00 | 53 | 1017.9 |
| 20260506071815 | 53 | 256 | 0.9 | 7.0 | 0.00 | 0.00 | 0.00 | 52 | 1017.9 |
| 20260506070915 | 53 | 257 | 0.0 | 4.3 | 0.00 | 0.00 | 0.00 | 51 | 1017.9 |
| 20260506061815 | 55 | 119 | 0.0 | 2.6 | 0.00 | 0.00 | 0.00 | 45 | 1017.9 |
| 20260506060915 | 56 | 227 | 0.0 | 4.3 | 0.00 | 0.00 | 0.00 | 45 | 1017.9 |
| 20260506050915 | 56 | 285 | 0.0 | 4.3 | 0.00 | 0.00 | 0.00 | 46 | 1017.9 |
| 20260506044503 | 56 | 289 | 0.0 | 6.1 | 0.00 | 0.00 | 0.00 | 45 | 1017.9 |
| 20260506043615 | 56 | 294 | 0.0 | 3.5 | 0.00 | 0.00 | 0.00 | 45 | 1017.9 |
| 20260506042715 | 57 | 256 | 0.0 | 4.3 | 0.00 | 0.00 | 0.00 | 44 | 1017.9 |
| 20260506041815 | 57 | 242 | 0.9 | 7.0 | 0.00 | 0.00 | 0.00 | 43 | 1017.9 |
| 20260506040915 | 57 | 228 | 0.9 | 5.2 | 0.00 | 0.00 | 0.00 | 43 | 1017.9 |
| 20260506040015 | 57 | 0 | 0.0 | 0.9 | 0.00 | 0.00 | 0.00 | 42 | 1017.9 |
| 20260506035403 | 57 | 256 | 0.0 | 4.3 | 0.00 | 0.00 | 0.00 | 42 | 1017.9 |
| 20260506034515 | 57 | 260 | 0.9 | 6.1 | 0.00 | 0.00 | 0.00 | 42 | 1017.9 |
| 20260506033615 | 57 | 266 | 0.0 | 5.2 | 0.00 | 0.00 | 0.00 | 41 | 1017.9 |
| 20260506032715 | 57 | 267 | 0.0 | 5.2 | 0.00 | 0.00 | 0.00 | 42 | 1017.9 |
| 20260506031803 | 57 | 268 | 0.0 | 3.5 | 0.00 | 0.00 | 0.00 | 42 | 1017.9 |
| 20260506030915 | 57 | 0 | 0.0 | 0.0 | 0.00 | 0.00 | 0.00 | 42 | 1017.9 |
| 20260506030015 | 57 | 309 | 0.0 | 3.5 | 0.00 | 0.00 | 0.00 | 42 | 1017.9 |
| 20260506025436 | 57 | 314 | 0.0 | 6.1 | 0.00 | 0.00 | 0.00 | 43 | 1017.9 |
| 20260506024536 | 56 | 0 | 0.0 | 0.0 | 0.00 | 0.00 | 0.00 | 43 | 1017.9 |
| 20260506023615 | 56 | 0 | 0.0 | 0.0 | 0.00 | 0.00 | 0.00 | 44 | 1017.9 |
| 20260506022703 | 56 | 0 | 0.0 | 0.0 | 0.00 | 0.00 | 0.00 | 44 | 1017.9 |
| 20260506021824 | 56 | 298 | 0.0 | 2.6 | 0.00 | 0.00 | 0.00 | 44 | 1017.9 |
| 20260506020915 | 57 | 291 | 0.9 | 7.8 | 0.00 | 0.00 | 0.00 | 44 | 1017.9 |
| 20260506020003 | 57 | 311 | 1.7 | 13.9 | 0.00 | 0.00 | 0.00 | 44 | 1017.9 |
| 20260506015436 | 57 | 305 | 2.6 | 13.9 | 0.00 | 0.00 | 0.00 | 43 | 1017.9 |
| 20260506014524 | 57 | 310 | 4.3 | 12.2 | 0.00 | 0.00 | 0.00 | 42 | 1017.9 |
| 20260506013615 | 58 | 297 | 6.1 | 14.8 | 0.00 | 0.00 | 0.00 | 42 | 1017.9 |
| 20260506012736 | 58 | 305 | 5.2 | 12.2 | 0.00 | 0.00 | 0.00 | 42 | 1017.9 |
| 20260506011803 | 58 | 317 | 4.3 | 15.6 | 0.00 | 0.00 | 0.00 | 42 | 1017.9 |
| 20260506010936 | 59 | 322 | 4.3 | 13.0 | 0.00 | 0.00 | 0.00 | 41 | 1017.9 |
| 20260506010003 | 59 | 310 | 6.1 | 14.8 | 0.00 | 0.00 | 0.00 | 40 | 1017.9 |
| 20260506005436 | 59 | 298 | 3.5 | 13.9 | 0.00 | 0.00 | 0.00 | 39 | 1017.9 |
| 20260506004515 | 60 | 295 | 6.1 | 14.8 | 0.00 | 0.00 | 0.00 | 38 | 1017.9 |
| 20260506003636 | 60 | 309 | 7.0 | 13.9 | 0.00 | 0.00 | 0.00 | 38 | 1017.9 |
| 20260506002715 | 61 | 309 | 5.2 | 15.6 | 0.00 | 0.00 | 0.00 | 37 | 1017.9 |
| 20260506001803 | 61 | 304 | 4.3 | 13.9 | 0.00 | 0.00 | 0.00 | 37 | 1017.9 |
| 20260506000915 | 61 | 311 | 6.1 | 13.9 | 0.00 | 0.00 | 0.00 | 38 | 1017.9 |
| 20260506000015 | 62 | 322 | 4.3 | 13.9 | 0.00 | 0.00 | 0.00 | 37 | 1017.9 |
| 20260505235436 | 62 | 323 | 6.1 | 18.2 | 0.00 | 0.00 | 0.00 | 36 | 1017.9 |
| 20260505234515 | 63 | 350 | 7.0 | 16.5 | 0.00 | 0.00 | 0.00 | 35 | 1017.9 |
| 20260505233615 | 66 | 326 | 7.8 | 18.2 | 0.00 | 0.00 | 0.00 | 32 | 1017.9 |
| 20260505232703 | 70 | 315 | 1.7 | 17.4 | 0.00 | 0.00 | 0.00 | 10 | 1017.9 |
| 20260505231803 | 71 | 276 | 1.7 | 9.6 | 0.00 | 0.00 | 0.00 | 8 | 1017.9 |
| 20260505230936 | 72 | 268 | 1.7 | 9.6 | 0.00 | 0.00 | 0.00 | 8 | 1017.9 |
| 20260505230015 | 72 | 252 | 1.7 | 9.6 | 0.00 | 0.00 | 0.00 | 8 | 1017.9 |
| 20260505225415 | 72 | 238 | 1.7 | 8.7 | 0.00 | 0.00 | 0.00 | 8 | 1017.9 |
| 20260505224503 | 72 | 272 | 3.5 | 11.3 | 0.00 | 0.00 | 0.00 | 9 | 1017.9 |
| 20260505223636 | 72 | 321 | 2.6 | 11.3 | 0.00 | 0.00 | 0.00 | 9 | 1017.9 |
| 20260505222736 | 71 | 235 | 1.7 | 14.8 | 0.00 | 0.00 | 0.00 | 9 | 1017.9 |
| 20260505221824 | 71 | 294 | 1.7 | 7.0 | 0.00 | 0.00 | 0.00 | 8 | 1017.9 |
| 20260505220915 | 72 | 302 | 1.7 | 12.2 | 0.00 | 0.00 | 0.00 | 9 | 1017.9 |
| 20260505220024 | 71 | 293 | 2.6 | 13.0 | 0.00 | 0.00 | 0.00 | 8 | 1017.9 |
| 20260505215415 | 71 | 300 | 2.6 | 13.0 | 0.00 | 0.00 | 0.00 | 8 | 1017.9 |
| 20260505214515 | 71 | 271 | 2.6 | 11.3 | 0.00 | 0.00 | 0.00 | 8 | 1017.9 |
| 20260505213615 | 72 | 255 | 2.6 | 11.3 | 0.00 | 0.00 | 0.00 | 7 | 1017.9 |
| 20260505212715 | 72 | 290 | 1.7 | 8.7 | 0.00 | 0.00 | 0.00 | 7 | 1017.9 |
| 20260505211815 | 71 | 256 | 1.7 | 8.7 | 0.00 | 0.00 | 0.00 | 8 | 1017.9 |
| 20260505210915 | 72 | 274 | 0.9 | 7.8 | 0.00 | 0.00 | 0.00 | 9 | 1017.9 |
| 20260505210015 | 72 | 229 | 1.7 | 7.8 | 0.00 | 0.00 | 0.00 | 9 | 1017.9 |
| 20260505205415 | 72 | 256 | 2.6 | 9.6 | 0.00 | 0.00 | 0.00 | 9 | 1017.9 |
| 20260505204515 | 72 | 312 | 1.7 | 9.6 | 0.00 | 0.00 | 0.00 | 10 | 1017.9 |
| 20260505203603 | 72 | 282 | 2.6 | 10.4 | 0.00 | 0.00 | 0.00 | 10 | 1017.9 |
| 20260505202715 | 72 | 297 | 1.7 | 8.7 | 0.00 | 0.00 | 0.00 | 10 | 1017.9 |
| 20260505201803 | 72 | 268 | 2.6 | 13.0 | 0.00 | 0.00 | 0.00 | 11 | 1017.9 |
| 20260505200903 | 72 | 245 | 1.7 | 11.3 | 0.00 | 0.00 | 0.00 | 10 | 1017.9 |
| 20260505200003 | 72 | 309 | 3.5 | 15.6 | 0.00 | 0.00 | 0.00 | 11 | 1017.9 |
| 20260505195415 | 72 | 314 | 4.3 | 15.6 | 0.00 | 0.00 | 0.00 | 11 | 1017.9 |
| 20260505194503 | 72 | 227 | 0.9 | 8.7 | 0.00 | 0.00 | 0.00 | 12 | 1017.9 |
| 20260505193615 | 71 | 294 | 1.7 | 12.2 | 0.00 | 0.00 | 0.00 | 13 | 1017.9 |
| 20260505192715 | 71 | 251 | 1.7 | 12.2 | 0.00 | 0.00 | 0.00 | 13 | 1017.9 |
| 20260505191815 | 71 | 315 | 2.6 | 13.9 | 0.00 | 0.00 | 0.00 | 14 | 1017.9 |
| 20260505190903 | 71 | 314 | 1.7 | 14.8 | 0.00 | 0.00 | 0.00 | 15 | 1017.9 |
| 20260505190015 | 70 | 296 | 2.6 | 16.5 | 0.00 | 0.00 | 0.00 | 16 | 1017.9 |
| 20260505185436 | 70 | 220 | 2.6 | 8.7 | 0.00 | 0.00 | 0.00 | 15 | 1017.9 |
| 20260505184515 | 70 | 281 | 2.6 | 13.0 | 0.00 | 0.00 | 0.00 | 15 | 1017.9 |
| 20260505183603 | 70 | 273 | 2.6 | 10.4 | 0.00 | 0.00 | 0.00 | 15 | 1017.9 |
| 20260505182715 | 70 | 324 | 3.5 | 13.0 | 0.00 | 0.00 | 0.00 | 15 | 1017.9 |
| 20260505181824 | 70 | 293 | 2.6 | 14.8 | 0.00 | 0.00 | 0.00 | 15 | 1017.9 |
| 20260505180915 | 69 | 198 | 1.7 | 12.2 | 0.00 | 0.00 | 0.00 | 16 | 1017.9 |
| 20260505180036 | 69 | 218 | 5.2 | 13.9 | 0.00 | 0.00 | 0.00 | 16 | 1017.9 |
| 20260505175403 | 69 | 314 | 4.3 | 13.9 | 0.00 | 0.00 | 0.00 | 16 | 1017.9 |
| 20260505174503 | 68 | 347 | 2.6 | 13.0 | 0.00 | 0.00 | 0.00 | 21 | 1017.9 |
| 20260505173615 | 67 | 91 | 0.9 | 5.2 | 0.00 | 0.00 | 0.00 | 28 | 1017.9 |
| 20260505172715 | 67 | 318 | 1.7 | 7.0 | 0.00 | 0.00 | 0.00 | 33 | 1017.9 |
| 20260505171815 | 67 | 70 | 3.5 | 8.7 | 0.00 | 0.00 | 0.00 | 33 | 1017.9 |